Regional Weather Roundup
Issued by NWS

Home | Current Version | Previous Version | Text Only | Print | Product List | Glossary Off
Versions: 1 2 3 4 5 6 7 8 9 10 11 12 13 14 15 16 17 18 19 20 21 22 23 24 25 26 27 28 29 30 31 32 33 34 35 36 37 38 39 40 41 42 43 44 45 46 47 48 49 50

000
ASUS43 KLMK 050510
RWRKY
KENTUCKY REGIONAL WEATHER ROUNDUP
NATIONAL WEATHER SERVICE LOUISVILLE KY
100 AM EDT TUE MAY 05 2015

NOTE "FAIR" INDICATES FEW OR NO CLOUDS BELOW 12,000 FEET
WITH NO SIGNIFICANT WEATHER AND/OR OBSTRUCTIONS TO VISIBILITY.

KYZ001>023-026-027-061>063-070>075-050600-
WESTERN AND SOUTH CENTRAL KENTUCKY

CITY           SKY/WX    TMP DP  RH WIND       PRES   REMARKS
PADUCAH        CLEAR     69  52  54 VRB3      30.18R
HENDERSON      CLEAR     66  54  63 S5        30.18S
OWENSBORO      CLEAR     67  58  72 CALM      30.21R
HOPKINSVILLE   CLEAR     68  53  58 S2        30.21R
BOWLING GREEN  CLEAR     62  56  80 CALM      30.23R
GLASGOW        CLEAR     60  55  83 CALM      30.23S
$$

KYZ024-025-028>034-038-045-046-053-050600-
NORTH CENTRAL KENTUCKY

CITY           SKY/WX    TMP DP  RH WIND       PRES   REMARKS
LOUISVILLE/SDF PTCLDY    72  56  57 S5        30.21R
LOUISVILLE/LOU CLEAR     66  57  72 CALM      30.21R
FORT KNOX      CLEAR     64  56  76 CALM      30.21R
$$

KYZ035>037-039>044-047>052-055>060-089>105-050600-
NORTHEAST KENTUCKY

CITY           SKY/WX    TMP DP  RH WIND       PRES   REMARKS
LEXINGTON      CLEAR     67  55  65 CALM      30.24R
COVINGTON      MOCLDY    68  57  68 S6        30.20S
FRANKFORT      CLEAR     63  54  72 S3        30.22R
$$

KYZ054-064>069-076>088-106>120-050600-
SOUTHEAST KENTUCKY

CITY           SKY/WX    TMP DP  RH WIND       PRES   REMARKS
JACKSON        CLEAR     65  49  56 CALM      30.27R
LONDON         CLEAR     59  51  75 CALM      30.27R
SOMERSET       CLEAR     57  52  82 CALM      30.27R
MIDDLESBORO    CLEAR     55  53  92 CALM      30.30R
MONTICELLO     CLEAR     57  54  90 CALM      30.29R
$$



USA.gov is the U.S. government's official web portal to all federal, state and local government web resources and services.